When you browse on this site, cookies collect data to enhance your experience and personalize the content and advertising you see.
Visit our Privacy Policy to learn more. By continuing to use the site, you agree to this use of cookies and data.
  • In Portugal
  • List of Countries
  • For 7 days
  • Water Temperature
  • Weather Map
  • Weather Widgets
  • user-avatar
    Login

    Hourly Weather Molina de Segura

    Today, 12 November, Tuesday

    Time Temperature Precipitation Wind Pressure Humidity
    00:00 +10°C° 0 mm 6 mps 750 mmHg 59%
    01:00 +10°C° 0 mm 7 mps 749 mmHg 58%
    02:00 +10°C° 0 mm 7 mps 749 mmHg 56%
    03:00 +9°C° 0 mm 7 mps 749 mmHg 55%
    04:00 +9°C° 0 mm 7 mps 749 mmHg 55%
    05:00 +9°C° 0 mm 7 mps 749 mmHg 54%
    06:00 +8°C° 0 mm 6 mps 749 mmHg 53%
    07:00 +9°C° 0 mm 7 mps 749 mmHg 50%
    08:00 +11°C° 0 mm 7 mps 749 mmHg 46%
    09:00 +12°C° 0 mm 8 mps 750 mmHg 42%
    10:00 +13°C° 0 mm 8 mps 750 mmHg 39%
    11:00 +15°C° 0 mm 8 mps 749 mmHg 35%
    12:00 +17°C° 0 mm 7 mps 749 mmHg 31%
    13:00 +17°C° 0 mm 7 mps 749 mmHg 30%
    14:00 +17°C° 0 mm 8 mps 748 mmHg 30%
    15:00 +18°C° 0 mm 8 mps 748 mmHg 29%
    16:00 +16°C° 0 mm 7 mps 748 mmHg 33%
    17:00 +15°C° 0 mm 6 mps 748 mmHg 36%
    18:00 +14°C° 0 mm 5 mps 748 mmHg 40%
    19:00 +13°C° 0 mm 4 mps 748 mmHg 44%
    20:00 +12°C° 0 mm 3 mps 748 mmHg 48%
    21:00 +13°C° 0 mm 2 mps 748 mmHg 51%
    22:00 +12°C° 0 mm 2 mps 748 mmHg 53%
    23:00 +12°C° 0 mm 2 mps 748 mmHg 54%

    Tomorrow, 13 November, Wednesday

    Time Temperature Precipitation Wind Pressure Humidity
    00:00 +12°C° 0 mm 2 mps 747 mmHg 56%
    01:00 +12°C° 0 mm 2 mps 747 mmHg 55%
    02:00 +12°C° 0 mm 2 mps 746 mmHg 55%
    03:00 +12°C° 0 mm 2 mps 746 mmHg 55%
    04:00 +12°C° 0 mm 2 mps 745 mmHg 57%
    05:00 +11°C° 0 mm 3 mps 745 mmHg 59%
    06:00 +12°C° 0 mm 3 mps 745 mmHg 61%
    07:00 +13°C° 0 mm 5 mps 745 mmHg 59%
    08:00 +15°C° 0 mm 7 mps 745 mmHg 57%
    09:00 +17°C° 0 mm 8 mps 745 mmHg 54%
    10:00 +18°C° 0 mm 10 mps 745 mmHg 51%
    11:00 +19°C° 0 mm 11 mps 746 mmHg 48%
    12:00 +22°C° 0 mm 12 mps 746 mmHg 45%
    13:00 +21°C° 0 mm 11 mps 746 mmHg 45%
    14:00 +21°C° 0 mm 10 mps 746 mmHg 45%
    15:00 +21°C° 0 mm 9 mps 746 mmHg 45%
    16:00 +20°C° 0 mm 7 mps 747 mmHg 49%
    17:00 +19°C° 0 mm 6 mps 747 mmHg 54%
    18:00 +17°C° 0 mm 5 mps 748 mmHg 58%
    19:00 +17°C° 0 mm 4 mps 748 mmHg 61%
    20:00 +17°C° 0 mm 3 mps 748 mmHg 64%
    21:00 +16°C° 0 mm 2 mps 748 mmHg 67%
    22:00 +15°C° 0 mm 2 mps 748 mmHg 69%
    23:00 +15°C° 0 mm 2 mps 747 mmHg 70%

    Day after tomorrow, 14 November, Thursday

    Time Temperature Precipitation Wind Pressure Humidity
    00:00 +15°C° 0 mm 2 mps 747 mmHg 71%
    01:00 +14°C° 0 mm 2 mps 746 mmHg 73%
    02:00 +14°C° 0 mm 2 mps 745 mmHg 74%
    03:00 +13°C° 0 mm 2 mps 745 mmHg 75%
    04:00 +13°C° 0 mm 2 mps 744 mmHg 76%
    05:00 +13°C° 0 mm 2 mps 744 mmHg 77%
    06:00 +13°C° 0 mm 2 mps 743 mmHg 78%
    07:00 +13°C° 0 mm 3 mps 743 mmHg 70%
    08:00 +14°C° 0 mm 3 mps 743 mmHg 63%
    09:00 +17°C° 0 mm 4 mps 743 mmHg 56%
    10:00 +16°C° 0 mm 6 mps 743 mmHg 50%
    11:00 +17°C° 0 mm 8 mps 743 mmHg 45%
    12:00 +17°C° 0 mm 10 mps 742 mmHg 39%
    13:00 +16°C° 0.1 mm 10 mps 742 mmHg 41%
    14:00 +14°C° 0.1 mm 10 mps 742 mmHg 43%
    15:00 +13°C° 0.1 mm 10 mps 742 mmHg 44%
    16:00 +12°C° 0 mm 9 mps 742 mmHg 45%
    17:00 +11°C° 0 mm 7 mps 742 mmHg 46%
    18:00 +10°C° 0 mm 6 mps 742 mmHg 47%
    19:00 +10°C° 0 mm 6 mps 742 mmHg 48%
    20:00 +10°C° 0 mm 7 mps 742 mmHg 49%
    21:00 +9°C° 0 mm 8 mps 742 mmHg 50%
    22:00 +9°C° 0 mm 8 mps 742 mmHg 51%
    23:00 +8°C° 0 mm 9 mps 742 mmHg 53%

    15 November, Friday

    Time Temperature Precipitation Wind Pressure Humidity
    00:00 +8°C° 0 mm 9 mps 742 mmHg 54%
    01:00 +7°C° 0 mm 10 mps 742 mmHg 53%
    02:00 +7°C° 0 mm 12 mps 742 mmHg 51%
    03:00 +7°C° 0 mm 13 mps 743 mmHg 49%
    04:00 +6°C° 0 mm 10 mps 743 mmHg 51%
    05:00 +6°C° 0 mm 7 mps 743 mmHg 53%
    06:00 +6°C° 0 mm 5 mps 743 mmHg 55%
    07:00 +8°C° 0 mm 3 mps 744 mmHg 60%
    08:00 +10°C° 0 mm 4 mps 745 mmHg 54%
    09:00 +10°C° 0 mm 5 mps 745 mmHg 49%
    10:00 +12°C° 0 mm 5 mps 745 mmHg 46%
    11:00 +13°C° 0 mm 5 mps 745 mmHg 42%
    12:00 +13°C° 0 mm 5 mps 745 mmHg 39%
    13:00 +13°C° 0 mm 5 mps 744 mmHg 39%
    14:00 +13°C° 0 mm 4 mps 744 mmHg 39%
    15:00 +13°C° 0 mm 4 mps 744 mmHg 39%
    16:00 +12°C° 0 mm 4 mps 744 mmHg 43%
    17:00 +11°C° 0 mm 3 mps 745 mmHg 47%
    18:00 +10°C° 0 mm 3 mps 745 mmHg 52%
    19:00 +9°C° 0 mm 3 mps 745 mmHg 53%
    20:00 +9°C° 0 mm 3 mps 746 mmHg 54%
    21:00 +8°C° 0 mm 3 mps 746 mmHg 55%
    22:00 +8°C° 0 mm 3 mps 746 mmHg 55%
    23:00 +8°C° 0 mm 3 mps 746 mmHg 56%

    16 November, Saturday

    Time Temperature Precipitation Wind Pressure Humidity
    00:00 +7°C° 0 mm 3 mps 746 mmHg 57%
    01:00 +7°C° 0 mm 3 mps 746 mmHg 58%
    02:00 +7°C° 0 mm 3 mps 746 mmHg 59%
    03:00 +6°C° 0 mm 4 mps 746 mmHg 60%
    04:00 +5°C° 0 mm 4 mps 746 mmHg 61%
    05:00 +5°C° 0 mm 4 mps 747 mmHg 62%
    06:00 +5°C° 0 mm 4 mps 747 mmHg 63%
    07:00 +6°C° 0 mm 5 mps 748 mmHg 58%
    08:00 +8°C° 0 mm 6 mps 748 mmHg 53%
    09:00 +9°C° 0 mm 7 mps 749 mmHg 49%
    10:00 +10°C° 0 mm 7 mps 749 mmHg 43%
    11:00 +12°C° 0 mm 7 mps 749 mmHg 38%
    12:00 +13°C° 0 mm 8 mps 749 mmHg 33%
    13:00 +14°C° 0 mm 7 mps 749 mmHg 33%
    14:00 +14°C° 0 mm 7 mps 749 mmHg 34%
    15:00 +14°C° 0 mm 7 mps 749 mmHg 34%
    16:00 +13°C° 0 mm 6 mps 750 mmHg 38%
    17:00 +12°C° 0 mm 5 mps 750 mmHg 43%
    18:00 +9°C° 0 mm 5 mps 751 mmHg 47%
    19:00 +10°C° 0 mm 4 mps 751 mmHg 49%
    20:00 +8°C° 0 mm 4 mps 751 mmHg 50%
    21:00 +8°C° 0 mm 4 mps 751 mmHg 52%
    22:00 +8°C° 0 mm 3 mps 751 mmHg 53%
    23:00 +8°C° 0 mm 3 mps 751 mmHg 55%

    17 November, Sunday

    Time Temperature Precipitation Wind Pressure Humidity
    00:00 +7°C° 0 mm 2 mps 751 mmHg 57%
    01:00 +7°C° 0 mm 2 mps 751 mmHg 58%
    02:00 +7°C° 0 mm 2 mps 750 mmHg 58%
    03:00 +7°C° 0 mm 2 mps 750 mmHg 59%
    04:00 +6°C° 0 mm 2 mps 749 mmHg 59%
    05:00 +6°C° 0 mm 2 mps 749 mmHg 59%
    06:00 +6°C° 0 mm 2 mps 749 mmHg 59%
    07:00 +8°C° 0 mm 2 mps 749 mmHg 55%
    08:00 +9°C° 0 mm 2 mps 749 mmHg 50%
    09:00 +12°C° 0 mm 2 mps 749 mmHg 45%
    10:00 +12°C° 0 mm 3 mps 749 mmHg 44%
    11:00 +14°C° 0 mm 3 mps 749 mmHg 42%
    12:00 +17°C° 0 mm 4 mps 748 mmHg 41%
    13:00 +17°C° 0 mm 4 mps 748 mmHg 42%
    14:00 +17°C° 0 mm 5 mps 747 mmHg 43%
    15:00 +17°C° 0 mm 5 mps 747 mmHg 44%
    16:00 +16°C° 0 mm 5 mps 746 mmHg 48%
    17:00 +15°C° 0 mm 4 mps 746 mmHg 53%
    18:00 +14°C° 0 mm 4 mps 746 mmHg 58%
    19:00 +14°C° 0.1 mm 4 mps 746 mmHg 61%
    20:00 +14°C° 0.1 mm 4 mps 746 mmHg 64%
    21:00 +13°C° 0.1 mm 5 mps 746 mmHg 67%
    22:00 +12°C° 0 mm 5 mps 746 mmHg 65%
    23:00 +10°C° 0 mm 5 mps 746 mmHg 64%
    Show more